93 visiteurs
Prévisions de votre ville :
Vigilance : 4 départements Mise à jour le 17/10/2018 à 18:01 - Voir la carte

Paris Roissy CDG (95380) le 18/10/2018 à 03:00 Choisir station

13°C 88 % NNE Vit. moyenne 19 kmh/h

Relevés météo quotidiens pour la station de :

UTC
S: Synop
M: Metar
Loc T°C
(°C)
Td
(°C)
HR
(%)
Vis
(km)
Néb
(octa)
Vent
(km/h)
Pression
(mb)
Précipitations
(mm)
Temps
              MOY
10 min
DIR RAF 1h MESURE VAR SUR 3h    
S 00 h 02h 15.1 11.1 77 19 6/8 35 54 1006.2 -0.6/3h 0.0/6h - 0.0/3h
S 01 h 03h 15.1 11.7 80 19 8/8 39 59 1006.6 -0.4/3h 0.0/1h
S 02 h 04h 15.6 12.2 80 45 8/8 44 70 1006.6 -0.2/3h 0.2/1h
S 03 h 05h 16.1 12.6 80 45 8/8 43 69 1006.5 +0.3/3h 0.2/3h
S 04 h 06h 16.7 12.8 78 19 8/8 44 72 1006.5 -0.1/3h 0.0/1h
S 05 h 07h 16.9 12.6 76 19 8/8 46 87 1006.7 +0.1/3h 0.0/1h
S 06 h 08h 17.1 12.2 73 19 8/8 46 76 1006.9 +0.4/3h 0.2/12h - 0.0/3h - 1.0/24h
S 07 h 09h 17.3 11.8 70 19 8/8 48 81 1007.1 +0.6/3h 0.0/1h
S 08 h 10h 17.8 11.8 68 35 8/8 48 81 1007.5 +0.9/3h 0.0/1h
M 09 h 11h 18 13 73 >=10 - 46 - 1008 -/3h -
S 10 h 12h 18.4 12.6 69 18 8/8 54 78 1007.8 +0.8/3h 0.0/1h
S 11 h 13h 19.2 13.1 68 18 8/8 52 81 1008.3 +0.8/3h 0.0/1h
S 12 h 14h 19.0 12.7 67 18 8/8 52 93 1008.7 +0.9/3h 0.0/6h - 0.0/3h
S 13 h 15h 19.1 12.8 67 19 8/8 50 81 1009.0 +1.2/3h 0.0/1h
S 14 h 16h 18.2 13.5 74 18 8/8 50 81 1009.5 +1.2/3h 0.0/1h
S 15 h 17h 18.2 13.1 72 19 8/8 48 81 1010.2 +1.4/3h 0.0/1h
S 16 h 18h 18.2 14.1 77 19 8/8 46 70 1010.3 +1.2/3h 0.0/1h
S 17 h 19h 18.8 14.5 76 19 8/8 44 70 1010.4 +0.9/3h 0.0/1h
S 18 h 20h 18.4 15.1 81 19 8/8 43 70 1010.8 +0.7/3h 0.0/3h
S 19 h 21h 18.5 15.2 81 19 8/8 41 67 1010.9 +0.7/3h 0.0/1h
S 20 h 22h 18.7 15.4 81 19 8/8 41 61 1010.9 +0.5/3h 0.0/1h
S 21 h 23h 17.8 16.3 91 8 8/8 39 69 1011.1 +0.2/3h 0.0/1h
S 22 h 00h 17.9 16.1 89 6 8/8 41 65 1010.9 -0.1/3h 0.2/1h
S 23 h 01h 18.6 15.7 83 19 8/8 44 69 1010.7 -0.2/3h 0.0/1h
evolution des temperatures
cumul des precipitations
vent moyen et rafales
pression atmospherique

Un tiret (-) signifie que les données ne sont pas disponibles.

Passez la souris sur les pictos temps pour avoir plus de précisions. Passez les flèches sur l'icône de la direction du vent pour voir la direction précise en degrés.

Les données de l'heure en cours sont disponibles à partir de H+15 minutes.


S signifie station Synop, plus complète qu'une station Metar (M). Il y a +1h de différence entre l'heure UTC et l'heure légale en hiver et +2h en été.

Td est la mesure du point de rosée.

HR est l'humidité relative/p>

Vis est la visibilité

Néb est la nébulosité du ciel (couverture nuageuse) exprimée en octas (de 0/8 à 8/8).

Vent moy 10 min donne le vent moyen sur les 10 minutes qui précèdent le relevé.

Vent raf 1h donne la rafale maximale mesurée dans l'heure qui précède le relevé.


Les données les plus anciennes remontent à avril 2014.

Les données présentées sur cette page proviennent des stations météo officielles. Les relevés sont effectués aux normes en vigueur (anémomètre à 10m de haut, thermomètre sous abri normalisé à 2m du sol...)

Météo 60 décline toute responsabilité en cas d'absence de données, d'erreurs, de mauvaise utilisation ou interprétation et n'est pas habilité à fournir des certificats intempéries.